This demonstration page uses our WeatherBlox Daily Observations layout. Learn more.

Left ArrowRight Arrow

39.08367, -84.50855

Hourly Observations for April 3, 2020

Temp ( °F °C ) Dew Point ( °F °C ) Humidity (%) Winds ( mph kmh ) Pressure ( in mb ) Visibility ( mi km ) Precip ( " mm )
12:53 am 00:53 Clear 42 5.6 39 3.9 89 89 Calm 30.11 1020 10 16 0.00 0.00
1:53 am 01:53 Clear 39 3.9 38 3.3 96 96 Calm 30.12 1020 10 16 0.00 0.00
2:53 am 02:53 Clear 38 3.3 37 2.8 97 97 Calm 30.11 1020 10 16 0.00 0.00
3:53 am 03:53 Clear 38 3.3 37 2.8 97 97 Calm 30.10 1019 7 11 0.00 0.00
4:53 am 04:53 Clear 36 2.2 35 1.7 97 97 Calm 30.10 1019 10 16 0.00 0.00
5:53 am 05:53 Clear 38 3.3 37 2.8 97 97 Calm 30.09 1019 9 14 0.00 0.00
6:28 am 06:28 Clear with Mist and Fog 36 2.2 35 1.7 97 97 Calm 30.12 1020 2 2 0.00 0.00
6:46 am 06:46 Clear with Mist and Fog 37 2.8 35 1.7 93 93 Calm 30.13 1020 4 6 0.00 0.00
6:53 am 06:53 Clear 36 2.2 35 1.7 97 97 Calm 30.11 1020 9 14 0.00 0.00
7:05 am 07:05 Clear 35 1.7 35 1.7 100 100 Calm 30.13 1020 2 2 0.00 0.00
7:12 am 07:12 Clear 35 1.7 34 1.1 96 96 SSE 3 6 30.14 1021 10 16 0.00 0.00
7:53 am 07:53 Sunny 37 2.8 36 2.2 96 96 Calm 30.14 1021 10 16 0.00 0.00
8:53 am 08:53 Sunny 45 7.2 41 5 86 86 Calm 30.15 1021 10 16 0.00 0.00
9:53 am 09:53 Sunny 50 10 43 6.1 77 77 Calm 30.14 1021 10 16 0.00 0.00
10:53 am 10:53 Sunny 56 13.3 42 5.6 60 60 Calm 30.14 1021 10 16 0.00 0.00
11:53 am 11:53 Sunny 61 16.1 39 3.9 44 44 W 7 11 30.12 1020 10 16 0.00 0.00
12:53 pm 12:53 Mostly Sunny 62 16.7 39 3.9 43 43 Calm 30.10 1019 10 16 0.00 0.00
1:53 pm 13:53 Cloudy 63 17.2 35 1.7 35 35 Calm 30.08 1019 10 16 0.00 0.00
2:53 pm 14:53 Cloudy 65 18.3 36 2.2 34 34 E 6 9 30.06 1018 10 16 0.00 0.00
3:53 pm 15:53 Sunny 68 20 36 2.2 31 31 VRB 3 6 30.04 1017 10 16 0.00 0.00
4:53 pm 16:53 Mostly Sunny 66 18.9 35 1.7 32 32 VRB 6 9 30.02 1017 10 16 0.00 0.00
5:53 pm 17:53 Sunny 67 19.4 36 2.2 32 32 Calm 30.01 1016 10 16 0.00 0.00
6:53 pm 18:53 Sunny 66 18.9 37 2.8 34 34 Calm 30.02 1017 10 16 0.00 0.00
7:53 pm 19:53 Sunny 64 17.8 36 2.2 35 35 Calm 30.01 1016 10 16 0.00 0.00
8:53 pm 20:53 Clear 54 12.2 45 7.2 72 72 Calm 30.01 1016 10 16 0.00 0.00
9:53 pm 21:53 Clear 50 10 44 6.7 80 80 Calm 30.03 1017 10 16 0.00 0.00
10:53 pm 22:53 Clear 48 8.9 44 6.7 86 86 NE 3 6 30.03 1017 10 16 0.00 0.00
11:53 pm 23:53 Clear 46 7.8 42 5.6 86 86 Calm 30.03 1017 10 16 0.00 0.00

Powered by AerisWeather